DW4236 Weather Reports


Display with metric or nautical units.
time (UTC)temp
F
wind
direction
speed
MPH
gust
MPH
rain 1hr
in
rain 24hr
in
rain mn
in
humidity
%
barometer
mb
20260831053604 67 255 0.0 0.0 0.00 0.03 0.00 93 1020.1
20260831053104 67 255 0.0 3.0 0.00 0.03 0.00 93 1020.2
20260831052605 67 255 1.0 2.0 0.00 0.03 0.00 93 1020.1
20260831052104 68 255 0.0 0.0 0.00 0.03 0.00 93 1020.0
20260831051604 68 255 0.0 0.0 0.00 0.03 0.00 93 1019.8
20260831041104 70 255 0.0 0.0 0.00 0.03 0.00 93 1019.9
20260831040604 70 255 0.0 0.0 0.00 0.03 0.00 93 1020.0
20260831040104 70 255 0.0 0.0 0.00 0.03 0.00 93 1020.1
20260831035104 70 255 0.0 0.0 0.00 0.03 0.03 93 1020.0
20260831034604 70 255 0.0 0.0 0.00 0.03 0.03 93 1020.0
20260831034103 70 255 0.0 0.0 0.00 0.03 0.03 93 1019.9
20260831033104 70 255 0.0 0.0 0.00 0.03 0.03 93 1020.0
20260831032604 70 255 1.0 3.0 0.00 0.03 0.03 93 1020.0
20260831032103 70 255 0.0 1.0 0.00 0.03 0.03 93 1020.1
20260831030604 71 255 1.0 2.0 0.00 0.03 0.03 93 1019.9
20260831030104 71 255 1.0 3.0 0.00 0.03 0.03 93 1019.9
20260831025604 71 255 1.0 2.0 0.00 0.03 0.03 93 1020.1
20260831025104 71 255 0.0 1.0 0.00 0.03 0.03 93 1020.1
20260831024604 71 255 0.0 1.0 0.01 0.03 0.03 93 1020.2
20260831024103 71 255 0.0 1.0 0.01 0.03 0.03 93 1020.2
20260831023605 71 255 1.0 3.0 0.01 0.03 0.03 93 1020.3
20260831023104 72 255 1.0 3.0 0.02 0.03 0.03 93 1020.2
20260831022103 72 254 0.0 2.0 0.02 0.03 0.03 93 1020.3
20260831021604 72 254 0.0 2.0 0.02 0.03 0.03 93 1020.3
20260831020105 72 254 1.0 3.0 0.02 0.03 0.03 93 1020.2
20260831015605 72 257 0.0 2.0 0.02 0.03 0.03 93 1020.1
20260831015104 72 259 0.0 3.0 0.02 0.03 0.03 93 1020.2
20260831014604 72 259 0.0 3.0 0.01 0.02 0.02 92 1020.2
20260831014104 72 275 0.0 0.0 0.01 0.02 0.02 92 1020.2
20260831013604 73 275 0.0 2.0 0.01 0.02 0.02 92 1020.1
20260831012604 73 269 2.0 3.0 0.00 0.01 0.01 92 1020.0
20260831012103 73 293 1.0 3.0 0.00 0.01 0.01 92 1019.8
20260831011604 73 275 0.0 3.0 0.01 0.01 0.01 92 1019.7
20260831010603 73 269 0.0 3.0 0.01 0.01 0.01 91 1019.6
20260831005604 73 269 0.0 2.0 0.01 0.01 0.01 91 1019.5
20260831004604 73 269 1.0 3.0 0.01 0.01 0.01 90 1019.4
20260831004104 73 264 1.0 3.0 0.01 0.01 0.01 90 1019.4
20260831003604 73 263 1.0 3.0 0.01 0.01 0.01 90 1019.4
20260831003104 73 282 0.0 2.0 0.01 0.01 0.01 90 1019.4
20260831002604 74 276 1.0 3.0 0.01 0.01 0.01 89 1019.3
20260831002105 74 272 0.0 3.0 0.01 0.01 0.01 89 1019.3
20260831001604 74 272 3.0 7.0 0.00 0.00 0.00 89 1019.2
20260831001104 74 247 1.0 3.0 0.00 0.00 0.00 88 1019.1
20260831000605 74 247 1.0 3.0 0.00 0.00 0.00 88 1019.1
20260831000105 74 247 1.0 3.0 0.00 0.00 0.00 88 1019.0
20260830235104 74 288 1.0 3.0 0.00 0.00 0.00 88 1018.8
20260830234603 74 289 1.0 5.0 0.00 0.00 0.00 87 1018.8
20260830234103 74 253 2.0 3.0 0.00 0.00 0.00 87 1018.7
20260830233104 75 278 0.0 0.0 0.00 0.00 0.00 86 1018.6
20260830232604 75 278 0.0 0.0 0.00 0.00 0.00 86 1018.6
20260830232104 75 278 0.0 1.0 0.00 0.00 0.00 86 1018.6
20260830231604 75 278 0.0 3.0 0.00 0.00 0.00 85 1018.5
20260830231104 75 274 1.0 2.0 0.00 0.00 0.00 85 1018.6
20260830230604 75 276 0.0 0.0 0.00 0.00 0.00 84 1018.6
20260830225604 75 274 1.0 6.0 0.00 0.00 0.00 84 1018.7
20260830225103 75 273 0.0 2.0 0.00 0.00 0.00 84 1018.7
20260830224604 76 272 2.0 3.0 0.00 0.00 0.00 84 1018.6
20260830224104 76 265 1.0 3.0 0.00 0.00 0.00 83 1018.7
20260830223603 76 263 2.0 3.0 0.00 0.00 0.00 83 1018.7
20260830223104 76 269 1.0 3.0 0.00 0.00 0.00 83 1018.8
20260830222604 76 253 0.0 1.0 0.00 0.00 0.00 83 1018.7
20260830222105 76 253 1.0 3.0 0.00 0.00 0.00 83 1018.7
20260830221604 76 255 1.0 3.0 0.00 0.00 0.00 83 1018.6
20260830221103 76 262 1.0 3.0 0.00 0.00 0.00 82 1018.7
20260830220604 76 263 2.0 3.0 0.00 0.00 0.00 82 1018.7
20260830220104 76 264 2.0 5.0 0.00 0.00 0.00 82 1018.7
20260830215604 76 269 2.0 3.0 0.00 0.00 0.00 82 1018.6
20260830215103 76 262 1.0 3.0 0.00 0.00 0.00 82 1018.6
20260830214604 76 284 3.0 6.0 0.00 0.00 0.00 82 1018.6
20260830214104 76 284 1.0 8.0 0.00 0.00 0.00 82 1018.6
20260830213604 76 256 1.0 3.0 0.00 0.00 0.00 82 1018.6
20260830213103 76 257 2.0 3.0 0.00 0.00 0.00 82 1018.6
20260830212604 76 284 2.0 5.0 0.00 0.00 0.00 82 1018.5
20260830212105 76 256 2.0 5.0 0.00 0.00 0.00 82 1018.5
20260830211604 76 261 0.0 3.0 0.00 0.00 0.00 83 1018.5
20260830211104 77 255 2.0 6.0 0.00 0.00 0.00 82 1018.5
20260830210604 77 290 1.0 3.0 0.00 0.00 0.00 82 1018.6
20260830210104 77 292 1.0 3.0 0.00 0.00 0.00 82 1018.6
20260830205603 77 286 0.0 6.0 0.00 0.00 0.00 82 1018.7
20260830204605 77 264 2.0 8.0 0.00 0.00 0.00 82 1018.7
20260830204104 77 253 2.0 3.0 0.00 0.00 0.00 82 1018.8
20260830203603 77 259 3.0 5.0 0.00 0.00 0.00 81 1018.9
20260830203105 77 250 0.0 1.0 0.00 0.00 0.00 82 1018.8
20260830202604 77 250 3.0 8.0 0.00 0.00 0.00 81 1018.7
20260830202104 77 240 4.0 8.0 0.00 0.00 0.00 81 1018.7
20260830201103 77 269 2.0 8.0 0.00 0.00 0.00 83 1019.0
20260830200604 76 259 1.0 3.0 0.00 0.00 0.00 83 1018.9
20260830200104 76 256 0.0 1.0 0.00 0.00 0.00 83 1018.9
20260830195104 77 185 1.0 3.0 0.00 0.00 0.00 82 1018.9
20260830194603 77 253 2.0 6.0 0.00 0.00 0.00 81 1018.9
20260830194105 77 221 2.0 7.0 0.00 0.00 0.00 81 1018.9
20260830193603 77 243 1.0 9.0 0.00 0.00 0.00 81 1019.0
20260830193104 77 250 3.0 9.0 0.00 0.00 0.00 80 1019.1
20260830192603 77 241 1.0 10.0 0.00 0.00 0.00 80 1019.2
20260830192104 77 267 5.0 12.0 0.00 0.00 0.00 79 1019.2
20260830191604 77 231 1.0 5.0 0.00 0.00 0.00 81 1019.2
20260830191105 77 246 2.0 5.0 0.00 0.00 0.00 81 1019.3
20260830190103 77 274 2.0 8.0 0.00 0.00 0.00 80 1019.7
20260830185104 77 189 1.0 5.0 0.00 0.00 0.00 79 1019.9
20260830184603 77 203 1.0 5.0 0.00 0.00 0.00 79 1020.0
20260830184103 77 284 2.0 5.0 0.00 0.00 0.00 80 1020.0
20260830183605 77 228 2.0 3.0 0.00 0.00 0.00 78 1019.9
20260830183104 77 220 2.0 3.0 0.00 0.00 0.00 78 1020.1
20260830182604 77 214 3.0 7.0 0.00 0.00 0.00 77 1020.2
20260830182103 77 244 1.0 2.0 0.00 0.00 0.00 77 1020.2
20260830181604 76 249 3.0 10.0 0.00 0.00 0.00 76 1020.3
20260830181104 77 198 1.0 7.0 0.00 0.00 0.00 75 1020.4
20260830180604 77 249 2.0 8.0 0.00 0.00 0.00 74 1020.4
20260830180104 77 251 3.0 7.0 0.00 0.00 0.00 74 1020.3
20260830175603 77 244 2.0 8.0 0.00 0.00 0.00 73 1020.3
20260830175104 77 267 1.0 10.0 0.00 0.00 0.00 73 1020.3
20260830174604 77 204 1.0 7.0 0.00 0.00 0.00 72 1020.3
20260830174105 77 235 1.0 6.0 0.00 0.00 0.00 72 1020.4
20260830173605 77 269 2.0 5.0 0.00 0.00 0.00 70 1020.5
20260830172103 78 289 3.0 10.0 0.00 0.00 0.00 69 1020.6
20260830171604 79 259 2.0 10.0 0.00 0.00 0.00 68 1020.7
20260830171104 79 255 4.0 10.0 0.00 0.00 0.00 67 1020.8
20260830170605 79 264 2.0 8.0 0.00 0.00 0.00 69 1020.8
20260830170103 79 249 2.0 8.0 0.00 0.00 0.00 68 1020.8
20260830165604 79 283 5.0 10.0 0.00 0.00 0.00 67 1020.8
20260830165103 78 280 3.0 9.0 0.00 0.00 0.00 68 1020.8
20260830164604 78 271 5.0 10.0 0.00 0.00 0.00 68 1021.0
20260830164104 79 298 4.0 8.0 0.00 0.00 0.00 67 1021.1
20260830163606 78 278 3.0 7.0 0.00 0.00 0.00 67 1021.0
20260830163104 78 301 1.0 3.0 0.00 0.00 0.00 67 1021.0
20260830161606 80 299 2.0 6.0 0.00 0.00 0.00 63 1021.0
20260830161105 81 268 2.0 7.0 0.00 0.00 0.00 65 1021.1
20260830155605 80 202 2.0 5.0 0.00 0.00 0.00 66 1021.4
20260830155105 79 171 2.0 7.0 0.00 0.00 0.00 67 1021.3
20260830154105 79 208 1.0 5.0 0.00 0.00 0.00 66 1021.7
20260830153605 79 259 3.0 6.0 0.00 0.00 0.00 65 1021.7
20260830153105 79 206 1.0 3.0 0.00 0.00 0.00 67 1021.8
20260830152604 79 189 2.0 5.0 0.00 0.00 0.00 69 1021.9
20260830151605 77 142 1.0 3.0 0.00 0.00 0.00 72 1021.9
20260830151105 76 221 1.0 2.0 0.00 0.00 0.00 71 1022.1
20260830150104 76 201 1.0 3.0 0.00 0.00 0.00 69 1022.3
20260830145605 76 209 1.0 3.0 0.00 0.00 0.00 69 1022.3
20260830145104 76 230 1.0 3.0 0.00 0.00 0.00 68 1022.2
20260830144605 76 237 3.0 8.0 0.00 0.00 0.00 65 1022.3
20260830144105 77 242 0.0 3.0 0.00 0.00 0.00 66 1022.3
20260830143606 76 276 0.0 5.0 0.00 0.00 0.00 68 1022.4
20260830143105 76 265 3.0 5.0 0.00 0.00 0.00 65 1022.4
20260830142605 76 307 1.0 3.0 0.00 0.00 0.00 67 1022.5
20260830142105 75 263 2.0 5.0 0.00 0.00 0.00 66 1022.5
20260830141605 75 168 0.0 0.0 0.00 0.00 0.00 68 1022.5
20260830141105 75 168 0.0 3.0 0.00 0.00 0.00 69 1022.5
20260830140605 74 168 1.0 2.0 0.00 0.00 0.00 72 1022.5
20260830140104 74 156 1.0 3.0 0.00 0.00 0.00 72 1022.6
20260830135604 74 201 0.0 3.0 0.00 0.00 0.00 70 1022.6
20260830135105 74 224 1.0 3.0 0.00 0.00 0.00 73 1022.5
20260830134605 73 146 2.0 3.0 0.00 0.00 0.00 74 1022.4
20260830134105 73 146 2.0 3.0 0.00 0.00 0.00 73 1022.4
20260830133605 74 167 1.0 5.0 0.00 0.00 0.00 73 1022.4
20260830133104 74 162 2.0 3.0 0.00 0.00 0.00 73 1022.4
20260830132604 73 265 0.0 1.0 0.00 0.00 0.00 72 1022.6
20260830132105 74 265 0.0 2.0 0.00 0.00 0.00 71 1022.7
20260830131605 73 265 2.0 3.0 0.00 0.00 0.00 73 1022.7
20260830131105 73 265 0.0 3.0 0.00 0.00 0.00 74 1022.8
20260830130605 72 265 1.0 3.0 0.00 0.00 0.00 75 1022.8
20260830130105 72 265 1.0 2.0 0.00 0.00 0.00 77 1022.9
20260830125605 71 265 1.0 3.0 0.00 0.00 0.00 78 1022.9
20260830125106 70 265 1.0 2.0 0.00 0.00 0.00 79 1023.0
20260830124605 69 265 1.0 3.0 0.00 0.00 0.00 81 1023.2
20260830124104 68 265 0.0 1.0 0.00 0.00 0.00 83 1023.2
20260830123605 67 265 0.0 1.0 0.00 0.00 0.00 86 1023.2
20260830122605 65 265 0.0 1.0 0.00 0.00 0.00 89 1023.3
20260830122105 64 265 0.0 0.0 0.00 0.00 0.00 91 1023.3
20260830121605 63 265 0.0 0.0 0.00 0.00 0.00 91 1023.4
20260830121105 63 265 0.0 0.0 0.00 0.00 0.00 91 1023.4
20260830120105 63 265 0.0 0.0 0.00 0.00 0.00 92 1023.5
20260830115604 63 265 0.0 0.0 0.00 0.00 0.00 93 1023.5
20260830115104 63 265 1.0 2.0 0.00 0.00 0.00 93 1023.5
20260830114606 62 265 1.0 2.0 0.00 0.00 0.00 94 1023.6
20260830113604 61 265 0.0 0.0 0.00 0.00 0.00 94 1023.7
20260830113105 60 265 0.0 0.0 0.00 0.00 0.00 94 1023.7
20260830112105 60 265 0.0 0.0 0.00 0.00 0.00 94 1023.8
20260830111605 59 265 0.0 0.0 0.00 0.00 0.00 94 1023.7
20260830110605 59 265 0.0 0.0 0.00 0.00 0.00 93 1023.5
20260830110104 59 265 0.0 0.0 0.00 0.00 0.00 93 1023.5
20260830105605 60 265 0.0 0.0 0.00 0.00 0.00 93 1023.6
20260830105105 60 265 0.0 0.0 0.00 0.00 0.00 93 1023.5
20260830104605 60 265 0.0 0.0 0.00 0.00 0.00 93 1023.5
20260830103105 60 265 0.0 0.0 0.00 0.00 0.00 93 1023.3
20260830102104 60 265 0.0 0.0 0.00 0.00 0.00 93 1023.3
20260830101606 60 265 0.0 0.0 0.00 0.00 0.00 93 1023.2
20260830100605 60 265 0.0 0.0 0.00 0.00 0.00 93 1023.3
20260830100104 60 265 0.0 0.0 0.00 0.00 0.00 93 1023.2
20260830095606 60 265 0.0 0.0 0.00 0.00 0.00 93 1023.3
20260830095106 60 265 0.0 0.0 0.00 0.00 0.00 93 1023.4
20260830094604 60 265 0.0 0.0 0.00 0.00 0.00 93 1023.3
20260830094104 59 265 0.0 0.0 0.00 0.00 0.00 93 1023.3
20260830092605 60 265 0.0 0.0 0.00 0.00 0.00 93 1023.4
20260830092105 60 265 0.0 0.0 0.00 0.00 0.00 93 1023.5
20260830091604 60 265 0.0 0.0 0.00 0.00 0.00 93 1023.5
20260830091105 59 265 0.0 0.0 0.00 0.00 0.00 93 1023.3
20260830090605 59 265 0.0 0.0 0.00 0.00 0.00 93 1023.3
20260830090105 59 265 0.0 0.0 0.00 0.00 0.00 93 1023.4
20260830085604 59 265 0.0 0.0 0.00 0.00 0.00 93 1023.4
20260830084606 60 265 0.0 0.0 0.00 0.00 0.00 93 1023.5
20260830082605 60 265 0.0 0.0 0.00 0.00 0.00 93 1023.8
20260830082104 60 265 0.0 0.0 0.00 0.00 0.00 93 1023.8
20260830081605 59 265 0.0 0.0 0.00 0.00 0.00 93 1023.8
20260830081105 59 265 0.0 0.0 0.00 0.00 0.00 92 1023.7
20260830080604 59 265 0.0 0.0 0.00 0.00 0.00 93 1023.7
20260830080104 59 265 0.0 0.0 0.00 0.00 0.00 92 1023.8
20260830075604 59 265 0.0 0.0 0.00 0.00 0.00 92 1023.7
20260830074604 59 265 0.0 0.0 0.00 0.00 0.00 92 1023.8
20260830074105 59 265 0.0 0.0 0.00 0.00 0.00 92 1023.8
20260830073105 59 265 0.0 0.0 0.00 0.00 0.00 92 1023.7
20260830072605 59 265 0.0 0.0 0.00 0.00 0.00 92 1023.6
20260830072106 59 265 0.0 0.0 0.00 0.00 0.00 92 1023.6
20260830071605 59 265 0.0 0.0 0.00 0.00 0.00 93 1023.6
20260830071105 59 265 0.0 2.0 0.00 0.00 0.00 93 1023.6
20260830070604 59 265 0.0 2.0 0.00 0.00 0.00 92 1023.5
20260830070105 59 265 0.0 0.0 0.00 0.00 0.00 92 1023.4
20260830065604 59 265 0.0 0.0 0.00 0.00 0.00 92 1023.5
20260830065104 59 265 0.0 0.0 0.00 0.00 0.00 92 1023.5
20260830064604 58 265 0.0 0.0 0.00 0.00 0.00 92 1023.5
20260830064104 58 265 0.0 0.0 0.00 0.00 0.00 92 1023.5
20260830063605 58 265 0.0 0.0 0.00 0.00 0.00 92 1023.5
20260830063105 58 265 0.0 0.0 0.00 0.00 0.00 91 1023.6
20260830062605 58 265 0.0 0.0 0.00 0.00 0.00 91 1023.7
20260830062105 58 265 0.0 0.0 0.00 0.00 0.00 91 1023.7
20260830061605 59 265 0.0 0.0 0.00 0.00 0.00 91 1023.8
20260830061104 59 265 0.0 0.0 0.00 0.00 0.00 91 1023.9
20260830060605 59 265 0.0 0.0 0.00 0.00 0.00 91 1023.8
20260830060104 59 265 0.0 0.0 0.00 0.00 0.00 91 1023.8
20260830055604 59 265 0.0 0.0 0.00 0.00 0.00 91 1023.8
20260830054605 59 265 0.0 0.0 0.00 0.00 0.00 91 1023.7
20260830054105 59 265 0.0 0.0 0.00 0.00 0.00 90 1023.7